Change the Weather History Date:

Sunday, March 24, 2013

  Actual Average (KJKL) Record (KJKL)
Temperature  
Mean Temperature 42 °F 50 °F  
Max Temperature 46 °F 61 °F 83 °F (2007)
Min Temperature 37 °F 40 °F 23 °F (2014)
Degree Days  
Heating Degree Days 24 15  
Month to date heating degree days 455  
Since 1 July heating degree days 3755  
Cooling Degree Days 0 0  
Month to date cooling degree days 0  
Year to date cooling degree days 0  
Moisture  
Dew Point 35 °F    
Average Humidity 77    
Maximum Humidity 100    
Minimum Humidity 43    
Precipitation  
Precipitation 0.00 in 0.13 in 0.86 in (2013)
Month to date precipitation 3.19  
Year to date precipitation 10.55  
Snow  
Snow 0.00 in 0.10 in - ()
Month to date snowfall 2.5  
Since 1 July snowfall 22.1  
Snow Depth -    
Sea Level Pressure  
Sea Level Pressure 29.58 in    
Wind  
Wind Speed 7 mph (East)    
Max Wind Speed 14 mph    
Max Gust Speed 21 mph    
Visibility 8 miles    
Events Rain    
T = Trace of Precipitation, MM = Missing Value Source: NWS Daily Summary

Daily Weather History Graph

Daily Weather History Graph

Search for Another Location

Airport or City:

Trip Planner

Search our weather history database for the weather conditions in past years. The results will help you decide how hot, cold, wet, or windy it might be!

Date:

Astronomy

Mar. 24, 2013 Rise Set
Actual Time 7:27 AM EDT 7:46 PM EDT
Civil Twilight 7:01 AM EDT 8:12 PM EDT
Nautical Twilight 6:30 AM EDT 8:43 PM EDT
Astronomical Twilight 5:59 AM EDT 9:14 PM EDT
Moon 5:15 PM EDT (3/24) 5:34 AM EDT (3/24)
Length of Visible Light 13h 11m
Length of Day
12h 18m
Waxing Gibbous, 91% of the Moon is Illuminated
Mar 24
Waxing Gibbous
Mar 27
Full
Apr 3
Last Quarter
Apr 10
New
Apr 18
First Quarter

Hourly Weather History & Observations

Time (EDT) Temp. Windchill Dew Point Humidity Pressure Visibility Wind Dir Wind Speed Gust Speed Precip Events Conditions
12:15 AM 41.4 °F 36.8 °F 21.7 °F 46% 29.85 in 10.0 mi ENE 6.9 mph - N/A   Clear
12:35 AM 41.0 °F 37.1 °F 21.6 °F 46% 29.83 in 10.0 mi ENE 5.8 mph - N/A   Clear
12:55 AM 41.4 °F 36.8 °F 21.2 °F 45% 29.82 in 10.0 mi ENE 6.9 mph - N/A   Clear
1:15 AM 42.1 °F 37.1 °F 21.0 °F 43% 29.81 in 10.0 mi ENE 8.1 mph - N/A   Clear
1:35 AM 41.9 °F 37.5 °F 21.0 °F 43% 29.81 in 10.0 mi ENE 6.9 mph - N/A   Clear
1:55 AM 41.9 °F 38.2 °F 20.8 °F 43% 29.83 in 10.0 mi East 5.8 mph - N/A   Clear
2:15 AM 41.9 °F 38.2 °F 21.0 °F 43% 29.83 in 10.0 mi ENE 5.8 mph - N/A   Clear
2:35 AM 41.9 °F 38.2 °F 21.2 °F 44% 29.82 in 10.0 mi ENE 5.8 mph - N/A   Clear
2:55 AM 41.9 °F 38.2 °F 21.0 °F 43% 29.83 in 10.0 mi ENE 5.8 mph - N/A   Clear
3:35 AM 41.4 °F 36.2 °F 21.4 °F 45% 29.79 in 10.0 mi NE 8.1 mph - N/A   Clear
3:55 AM 41.4 °F 35.2 °F 21.2 °F 45% 29.77 in 10.0 mi ENE 10.4 mph - N/A   Clear
4:15 AM 41.7 °F 35.6 °F 20.8 °F 43% 29.75 in 10.0 mi ENE 10.4 mph - N/A   Clear
4:35 AM 41.9 °F 35.9 °F 21.0 °F 43% 29.73 in 10.0 mi ENE 10.4 mph - N/A   Clear
4:55 AM 41.9 °F 37.5 °F 21.2 °F 44% 29.73 in 10.0 mi ENE 6.9 mph - N/A   Clear
5:15 AM 41.9 °F 37.5 °F 21.2 °F 44% 29.74 in 10.0 mi ENE 6.9 mph - N/A   Clear
5:35 AM 41.9 °F 38.2 °F 21.2 °F 44% 29.74 in 10.0 mi ENE 5.8 mph - N/A   Mostly Cloudy
5:55 AM 41.9 °F 37.5 °F 21.6 °F 44% 29.73 in 10.0 mi ENE 6.9 mph - N/A   Overcast
6:15 AM 41.9 °F 36.9 °F 22.1 °F 45% 29.73 in 10.0 mi ENE 8.1 mph - N/A   Overcast
6:35 AM 41.4 °F 36.8 °F 23.0 °F 48% 29.71 in 10.0 mi ENE 6.9 mph - N/A   Overcast
6:55 AM 41.9 °F 37.5 °F 22.3 °F 46% 29.69 in 10.0 mi East 6.9 mph - N/A   Overcast
7:15 AM 41.5 °F 37.1 °F 23.0 °F 48% 29.69 in 10.0 mi ENE 6.9 mph - N/A   Overcast
7:35 AM 41.0 °F 37.1 °F 25.2 °F 53% 29.68 in 10.0 mi East 5.8 mph - N/A   Overcast
7:55 AM 39.9 °F 35.8 °F 27.5 °F 61% 29.68 in 10.0 mi East 5.8 mph - N/A   Overcast
8:15 AM 39.2 °F 35.9 °F 29.1 °F 67% 29.68 in 7.0 mi East 4.6 mph - N/A   Overcast
8:35 AM 38.3 °F 33.9 °F 31.8 °F 77% 29.67 in 10.0 mi East 5.8 mph - N/A   Overcast
8:55 AM 37.9 °F 34.4 °F 32.2 °F 80% 29.66 in 10.0 mi East 4.6 mph - N/A   Overcast
9:15 AM 37.8 °F - 33.6 °F 85% 29.66 in 7.0 mi Calm Calm - N/A   Overcast
9:35 AM 37.8 °F 35.3 °F 34.7 °F 89% 29.65 in 10.0 mi NE 3.5 mph - N/A   Overcast
9:55 AM 38.5 °F 32.1 °F 35.1 °F 87% 29.63 in 10.0 mi ENE 9.2 mph - N/A   Overcast
10:15 AM 38.8 °F 32.6 °F 36.1 °F 90% 29.59 in 10.0 mi East 9.2 mph - N/A   Overcast
10:35 AM 39.7 °F 37.6 °F 37.6 °F 92% 29.59 in 10.0 mi NE 3.5 mph - N/A   Overcast
10:55 AM 41.2 °F 38.2 °F 39.0 °F 92% 29.58 in 10.0 mi East 4.6 mph - N/A   Overcast
11:15 AM 42.1 °F - 39.7 °F 91% 29.59 in 10.0 mi Calm Calm - N/A   Overcast
11:35 AM 42.8 °F 38.0 °F 40.8 °F 93% 29.58 in 10.0 mi ENE 8.1 mph - N/A   Overcast
11:55 AM 43.5 °F 40.1 °F 41.9 °F 94% 29.58 in 10.0 mi ENE 5.8 mph - N/A   Overcast
12:15 PM 44.2 °F 41.8 °F 42.3 °F 93% 29.57 in 10.0 mi ENE 4.6 mph - N/A   Light Drizzle
12:35 PM 46.6 °F - 44.6 °F 93% 29.55 in 10.0 mi East 4.6 mph - N/A   Light Drizzle
12:55 PM 46.6 °F - 44.1 °F 91% 29.55 in 10.0 mi Calm Calm - N/A   Drizzle
1:15 PM 46.0 °F 43.9 °F 44.2 °F 93% 29.55 in 1.5 mi South 4.6 mph - N/A Rain Rain
1:35 PM 46.0 °F 43.1 °F 44.6 °F 95% 29.54 in 3.0 mi SSE 5.8 mph - N/A Rain Light Rain
1:55 PM 46.2 °F 44.1 °F 44.6 °F 94% 29.53 in 4.0 mi SE 4.6 mph - N/A   Drizzle
2:15 PM 46.4 °F 43.5 °F 45.5 °F 97% 29.52 in 2.5 mi East 5.8 mph - N/A   Drizzle
2:35 PM 45.9 °F 44.6 °F 45.0 °F 97% 29.51 in 2.0 mi East 3.5 mph - N/A   Drizzle
2:55 PM 45.7 °F 41.5 °F 45.0 °F 97% 29.49 in 2.0 mi ESE 8.1 mph - N/A   Heavy Drizzle
3:15 PM 46.0 °F 43.1 °F 45.3 °F 97% 29.48 in 3.0 mi ESE 5.8 mph - N/A   Drizzle
3:35 PM 46.4 °F 42.9 °F 45.3 °F 96% 29.47 in 2.5 mi ESE 6.9 mph - N/A   Heavy Drizzle
3:55 PM 46.4 °F 42.9 °F 45.5 °F 97% 29.45 in 3.0 mi East 6.9 mph - N/A   Drizzle
4:15 PM 46.0 °F 43.1 °F 45.3 °F 97% 29.44 in 7.0 mi East 5.8 mph - N/A   Light Drizzle
4:35 PM 45.9 °F 43.6 °F 45.0 °F 97% 29.43 in 7.0 mi ESE 4.6 mph - N/A   Overcast
4:55 PM 45.9 °F 42.9 °F 44.8 °F 96% 29.42 in 10.0 mi ESE 5.8 mph - N/A   Overcast
5:15 PM 45.7 °F 42.0 °F 44.8 °F 97% 29.40 in 10.0 mi East 6.9 mph - N/A   Overcast
5:35 PM 45.5 °F 41.8 °F 44.6 °F 97% 29.39 in 10.0 mi East 6.9 mph - N/A   Overcast
5:55 PM 44.8 °F 39.9 °F 44.1 °F 97% 29.38 in 5.0 mi East 9.2 mph - N/A   Overcast
6:15 PM 44.4 °F 40.5 °F 43.7 °F 97% 29.38 in 4.0 mi East 6.9 mph - N/A   Drizzle
6:35 PM 43.9 °F 39.3 °F 43.3 °F 98% 29.37 in 10.0 mi East 8.1 mph - N/A   Light Drizzle
6:55 PM 43.9 °F 39.3 °F 43.2 °F 97% 29.37 in 4.0 mi East 8.1 mph - N/A Rain Heavy Rain
7:15 PM 43.7 °F 39.1 °F 43.2 °F 98% 29.38 in 4.0 mi East 8.1 mph - N/A Rain Light Rain
7:35 PM 43.5 °F 41.9 °F 42.8 °F 97% 29.38 in 5.0 mi East 3.5 mph - N/A   Overcast
8:15 PM 43.0 °F 38.8 °F 42.4 °F 98% 29.38 in 4.0 mi East 6.9 mph - N/A   Overcast
8:35 PM 42.8 °F - 42.4 °F 99% 29.39 in 2.0 mi Calm Calm - N/A   Overcast
8:55 PM 42.8 °F 39.3 °F 42.8 °F 100% 29.39 in 3.0 mi ESE 5.8 mph - N/A   Overcast
9:15 PM 43.3 °F 37.7 °F 43.0 °F 99% 29.41 in 2.0 mi SW 10.4 mph - N/A   Overcast
9:35 PM 44.2 °F 37.6 °F 42.4 °F 93% 29.42 in 7.0 mi WSW 13.8 mph 18.4 mph N/A   Overcast
9:55 PM 44.1 °F 38.1 °F 41.4 °F 90% 29.43 in 10.0 mi WSW 11.5 mph 20.7 mph N/A   Overcast
10:15 PM 43.9 °F 38.8 °F 41.2 °F 90% 29.44 in 10.0 mi WSW 9.2 mph - N/A   Overcast
10:35 PM 43.9 °F 39.3 °F 40.8 °F 89% 29.44 in 10.0 mi WSW 8.1 mph 16.1 mph N/A   Overcast
10:55 PM 43.7 °F 40.3 °F 40.6 °F 89% 29.43 in 10.0 mi SW 5.8 mph - N/A   Mostly Cloudy
11:15 PM 43.3 °F 38.6 °F 40.3 °F 89% 29.44 in 10.0 mi WSW 8.1 mph - N/A   Mostly Cloudy
11:35 PM 43.7 °F 38.1 °F 40.3 °F 88% 29.44 in 10.0 mi WSW 10.4 mph - N/A   Overcast
11:55 PM 43.7 °F 40.3 °F 39.7 °F 86% 29.45 in 10.0 mi West 5.8 mph - N/A   Overcast